Regional Weather Roundup
Issued by NWS

Home | Current Version | Previous Version | Graphics & Text | Print | Product List | Glossary On
Versions: 1 2 3 4 5 6 7 8 9 10 11 12 13 14 15 16 17 18 19 20 21 22 23 24 25 26 27 28 29 30 31 32 33 34 35 36 37 38 39 40 41 42 43 44 45 46 47 48 49 50
000
ASUS45 KBOI 281110
RWRID

IDAHO REGIONAL WEATHER ROUNDUP
NATIONAL WEATHER SERVICE BOISE ID
500 AM MDT TUE JUL 28 2015

NOTE: "FAIR" INDICATES FEW OR NO CLOUDS BELOW 12000 FEET
WITH NO SIGNIFICANT WEATHER AND/OR OBSTRUCTIONS TO VISIBILITY

IDZ012-014-281200-
SOUTHWEST IDAHO


CITY           SKY/WX    TMP DP  RH WIND       PRES   REMARKS
BOISE          CLEAR     53  36  52 SE3       30.21R
CALDWELL       CLEAR     52  32  46 NW7       30.21S
MOUNTAIN HOME  CLEAR     53  34  49 N8        30.20S
$$

IDZ016-017-281200-
SOUTHCENTRAL IDAHO


CITY           SKY/WX    TMP DP  RH WIND       PRES   REMARKS
BURLEY         CLEAR     43  35  73 W3        30.22S
JEROME         CLEAR     43  34  70 SE7       30.23S
TWIN FALLS     CLEAR     50  31  48 S10       30.21S
$$

IDZ019>023-281200-
SOUTHEAST IDAHO


CITY           SKY/WX    TMP DP  RH WIND       PRES   REMARKS
IDAHO FALLS    CLEAR     40  38  93 NW5       30.26R
POCATELLO      CLEAR     41  40  96 CALM      30.25R
REXBURG        CLEAR     39  37  92 CALM      30.25S
$$

IDZ006-010-011-018-031-032-281200-
CENTRAL IDAHO MOUNTAINS


CITY           SKY/WX    TMP DP  RH WIND       PRES   REMARKS
MCCALL         CLEAR     38  35  89 CALM      30.27R
HAILEY         CLEAR     41  36  81 W14       30.29R
STANLEY        NOT AVBL
SALMON         MOCLDY    46  39  76 CALM      30.27R
CHALLIS        PTCLDY    41  38  89 E3        30.30R
$$

IDZ002-004-006-007-026-281200-
NORTHERN IDAHO


CITY           SKY/WX    TMP DP  RH WIND       PRES   REMARKS
LEWISTON       CLEAR     57  48  72 E5        30.18R
LOWELL           N/A     53  51  93 CALM      30.27R
COEUR D`ALENE  CLEAR     54  46  76 S8        30.17R
MULLAN PASS    CLEAR     40  37  89 VRB3      30.24R
$$


USA.gov is the U.S. government's official web portal to all federal, state and local government web resources and services.